Lapse_Rate
4.3 4.4 4.4 4.2 4.2 4.0 4.0 4.1 4.2 4.3 4.3 4.4 4.5 4.5 4.5 4.6 4.7 5.0 5.2 5.3 5.6 5.8 5.9 6.0 6.1 6.1 6.5 6.6 6.6 6.4 6.1 6.1 6.4 6.0 5.9 6.8 6.5 6.7 6.7 6.3 6.5 6.4 6.0 6.2 6.2
4.1 4.1 4.3 4.4 4.3 4.3 4.2 4.3 4.3 4.3 4.5 4.4 4.5 4.6 4.5 4.5 4.6 4.9 5.1 5.3 5.4 5.6 5.7 5.9 6.1 6.1 6.2 6.5 6.5 6.4 6.0 6.5 6.6 6.7 6.6 6.7 6.5 6.5 6.5 6.5 6.6 6.4 6.2 6.1 5.9
4.3 4.4 4.5 4.7 4.6 4.5 4.2 4.3 4.5 4.6 4.6 4.7 4.6 4.6 4.6 4.7 4.5 5.2 5.0 5.2 5.4 5.6 5.8 5.8 5.8 5.9 6.1 6.3 6.5 6.4 6.4 6.5 6.7 6.7 6.7 6.6 6.4 6.5 6.4 6.4 6.3 6.3 6.3 5.9 5.7
4.7 4.7 4.6 4.6 4.9 4.6 4.5 4.5 4.6 4.7 4.8 4.7 4.6 4.6 4.7 4.7 4.5 4.9 5.2 5.2 5.5 5.6 5.8 5.9 5.9 5.9 5.9 5.9 6.6 6.5 6.9 6.8 6.8 6.7 6.5 6.6 6.5 6.1 6.2 6.2 6.5 6.3 6.4 6.0 5.7
4.9 4.8 4.7 4.8 5.0 4.9 4.8 4.8 4.8 4.7 4.8 4.8 4.9 4.9 4.8 5.2 5.0 5.1 5.2 5.2 5.4 5.6 5.6 5.6 5.7 5.7 5.8 6.1 6.2 6.5 6.7 6.8 6.6 6.7 6.3 6.6 6.5 6.0 6.3 6.4 7.2 6.6 6.0 5.6 5.2
5.0 4.8 4.8 4.8 5.0 4.9 4.6 4.6 4.7 4.8 4.9 4.8 4.9 5.0 5.0 5.0 5.3 5.3 5.2 5.1 5.2 5.4 5.6 5.5 5.4 5.3 5.5 5.7 5.9 6.0 6.1 6.1 6.3 6.1 5.9 6.2 6.1 6.0 6.6 6.8 6.5 6.1 5.3 5.2 4.9
5.1 5.0 4.9 4.9 4.9 5.0 4.9 4.8 4.9 5.0 5.0 5.0 5.0 5.1 5.3 5.3 5.5 5.6 5.4 5.3 5.2 5.1 5.2 5.3 5.3 5.2 5.3 5.6 5.9 5.8 5.7 5.7 5.9 6.0 5.7 5.9 5.4 6.0 6.3 6.4 5.9 5.6 5.2 4.8 4.4
5.3 5.2 4.9 5.0 4.9 5.1 4.8 4.8 5.0 5.0 5.1 5.2 5.3 5.2 5.6 5.7 5.7 5.6 5.4 5.3 5.1 5.1 4.9 4.9 5.1 5.3 5.4 5.5 5.6 5.5 5.3 5.2 5.2 5.6 5.6 5.2 5.8 6.1 6.5 5.9 5.6 5.3 4.7 4.4 4.3
5.6 5.3 5.1 4.8 4.8 5.0 4.9 4.8 5.0 5.1 5.3 5.3 5.5 5.4 5.4 5.9 5.6 5.3 5.1 4.9 4.9 5.0 5.0 5.0 5.0 5.1 5.1 5.2 4.9 5.0 5.7 5.6 5.1 5.3 5.2 5.0 5.6 6.1 5.6 5.6 5.5 4.8 4.2 4.3 4.3
5.6 5.4 4.9 5.0 5.1 5.0 5.1 4.7 4.7 4.8 5.2 5.4 5.4 5.3 5.4 5.8 5.9 5.7 5.5 5.1 5.0 5.0 5.1 5.0 4.8 4.8 4.8 4.4 4.8 5.8 5.4 5.5 4.9 4.9 5.1 5.0 5.5 5.5 5.0 5.5 4.8 4.0 4.2 4.1 3.6
5.6 5.5 5.4 5.2 5.1 5.1 4.8 4.8 5.0 5.1 5.5 5.4 5.5 5.5 5.6 5.9 6.0 6.0 5.8 5.6 5.4 5.5 4.7 5.0 4.6 4.5 4.4 4.1 4.3 4.2 4.7 4.8 4.8 4.3 4.7 4.9 5.5 5.0 4.7 4.4 3.9 4.1 4.1 3.6 3.3
6.0 5.8 5.7 5.4 5.3 5.3 5.1 5.2 5.3 5.4 5.3 5.5 5.9 5.7 5.9 6.0 6.3 6.2 6.1 5.7 5.4 4.8 5.0 4.7 4.7 4.5 4.2 4.5 4.8 4.9 4.7 4.7 4.5 4.8 4.9 5.2 5.5 4.9 4.3 3.9 4.0 4.2 3.7 3.1 2.6
6.3 6.2 6.0 5.8 5.9 5.8 5.9 5.9 5.8 5.7 5.7 5.3 6.1 6.0 6.2 6.2 6.2 6.2 5.9 5.8 5.4 5.0 4.8 4.9 4.9 4.9 4.6 4.4 4.8 4.7 4.6 4.2 4.3 4.7 4.8 4.9 4.8 4.3 4.1 4.0 4.2 3.0 2.9 2.5 2.4
6.4 6.4 6.2 6.1 6.5 6.5 6.4 6.2 6.3 6.0 5.8 5.6 5.5 5.9 6.3 6.2 6.3 6.1 5.7 5.5 5.4 5.2 5.3 4.9 5.2 5.2 4.8 4.6 4.7 4.9 5.5 5.4 5.0 3.9 4.5 4.5 4.9 4.2 4.0 4.0 3.3 3.1 3.0 2.7 2.9
6.5 6.4 6.2 6.4 6.7 6.8 6.5 6.5 6.2 5.8 6.5 6.1 5.7 5.9 6.3 6.2 6.1 6.2 5.7 5.6 5.4 5.1 5.2 5.2 5.2 5.2 4.9 4.7 4.7 5.1 5.2 4.8 4.2 3.7 3.7 4.0 3.6 3.8 3.7 4.0 3.7 3.2 3.2 2.9 3.2
6.7 6.5 6.5 6.7 6.8 6.6 6.4 6.2 6.0 5.8 6.2 5.7 5.6 5.6 6.0 6.4 6.3 6.0 6.1 5.8 5.5 5.2 5.1 4.9 5.2 5.1 5.0 4.9 4.9 5.0 5.4 5.4 4.1 3.8 4.2 3.9 3.8 4.7 3.5 3.4 3.2 3.2 2.9 3.0 4.0
6.7 6.7 6.8 6.8 7.0 6.2 6.5 5.9 6.0 6.0 6.3 5.7 5.7 6.0 5.9 6.2 6.5 6.2 6.0 5.9 5.2 5.2 4.9 4.5 4.8 5.0 4.8 4.7 4.5 5.3 5.2 5.0 5.0 4.7 5.5 3.6 3.5 3.9 3.6 3.3 2.8 2.8 2.8 3.9 4.0
6.8 6.6 6.6 6.7 6.7 6.3 6.1 6.3 6.0 6.3 6.2 6.0 6.4 6.3 6.0 6.2 6.3 6.0 5.6 5.3 5.3 5.3 4.5 5.1 5.3 4.8 4.6 4.5 4.5 5.0 4.8 4.6 5.9 6.1 5.8 3.5 4.2 3.7 3.3 3.0 2.7 2.8 2.9 3.8 3.9
6.9 6.7 6.7 6.7 6.6 6.4 6.0 6.0 6.6 6.4 6.1 6.1 6.2 6.4 6.1 6.5 6.1 5.7 5.4 5.2 5.2 5.4 5.0 4.9 5.2 4.9 4.8 4.7 4.6 4.5 4.5 4.7 4.8 4.0 4.3 5.6 4.3 3.7 2.9 3.0 2.8 3.1 3.8 4.2 4.2
7.0 6.9 6.9 6.8 6.5 6.0 6.1 5.8 6.1 6.1 5.9 5.9 5.7 6.0 6.1 6.0 5.8 5.6 5.7 5.6 5.2 5.3 5.0 4.7 4.5 4.8 4.8 4.8 4.7 4.6 4.6 4.5 4.5 5.0 5.6 5.7 5.0 4.7 4.0 3.7 3.2 3.4 4.4 4.3 4.3
7.1 7.2 7.0 6.8 6.6 6.3 5.9 5.7 5.7 6.1 5.8 5.6 5.6 5.8 5.9 5.7 5.8 5.2 5.4 5.8 5.2 5.1 5.0 4.8 4.6 4.5 4.6 4.8 4.5 4.8 4.7 4.6 4.4 3.9 5.1 5.7 5.1 3.9 3.6 3.2 3.3 3.6 4.2 4.2 4.5
7.2 7.1 6.9 6.7 6.6 6.5 6.3 5.8 5.9 5.9 5.7 5.4 5.7 6.2 5.9 6.2 5.9 5.4 5.5 5.6 5.3 5.1 4.6 4.9 4.6 4.5 4.6 5.0 4.9 5.0 4.7 4.8 4.5 4.2 3.7 3.5 4.5 3.9 3.5 3.2 3.2 3.8 4.3 4.0 4.2
7.2 7.2 6.9 6.8 6.6 6.5 6.2 5.9 5.9 5.9 5.8 5.7 5.8 6.0 6.1 5.9 5.7 5.6 5.5 5.5 5.1 4.9 4.5 4.3 4.5 4.6 5.0 4.8 5.1 5.1 5.1 5.0 4.4 4.1 4.0 4.5 4.7 3.8 3.5 3.4 3.2 4.1 4.4 3.9 4.3
7.1 7.2 6.9 6.7 6.6 6.5 6.1 6.3 6.2 6.1 5.9 6.1 6.3 6.2 6.1 5.8 5.7 5.5 5.5 5.4 5.2 4.9 4.4 4.3 4.2 4.6 5.2 4.8 5.0 5.1 5.1 4.9 4.3 3.9 4.4 4.1 4.2 3.5 3.3 3.1 3.3 4.2 4.2 4.0 4.1
7.2 7.2 6.9 6.7 6.7 6.4 5.9 6.2 5.9 5.9 6.1 6.2 6.2 6.2 5.9 5.7 5.6 5.5 5.4 5.2 5.0 4.9 4.4 4.1 4.1 4.3 4.5 4.9 5.0 5.0 5.0 4.9 4.5 4.3 4.1 4.3 4.1 3.5 3.3 3.2 3.6 4.4 4.4 3.8 4.0
7.5 7.3 6.9 6.6 6.6 6.6 6.2 6.2 6.0 5.8 5.8 6.3 6.3 6.1 5.8 5.5 5.5 5.1 4.9 4.8 4.8 4.9 4.5 4.1 4.1 4.3 4.8 4.9 5.1 5.3 5.6 5.3 4.5 4.5 4.5 4.3 4.2 3.8 3.3 3.3 3.6 4.4 4.5 4.1 4.1
7.5 7.1 6.6 6.5 6.5 6.6 6.6 5.9 5.8 5.6 6.0 6.1 6.0 6.0 6.1 5.6 5.6 5.3 4.8 4.6 4.6 4.6 4.4 4.1 4.1 4.3 4.9 5.0 5.1 5.5 6.2 6.0 5.4 5.1 4.8 4.4 4.2 3.8 3.5 3.4 3.6 4.4 4.6 4.4 4.2
Wind_Speed
9 10 10 9 9 11 12 13 12 12 13 13 13 12 13 13 19 11 3 8 7 13 13 8 5 3 3 2 2 2 5 8 12 5 3 5 8 4 2 6 4 3 6 7 11
8 8 10 11 11 11 12 12 12 12 13 13 13 12 13 14 12 3 5 10 10 9 8 6 4 4 4 2 2 5 6 7 5 1 2 7 8 5 5 8 9 8 7 7 12
9 9 9 10 10 10 11 12 12 12 12 12 11 11 13 15 8 4 9 9 8 9 7 5 4 4 5 3 4 3 5 5 2 1 1 4 6 3 5 8 10 7 6 10 13
10 9 10 10 10 10 10 11 12 12 12 11 11 11 14 5 7 4 11 7 7 8 6 4 4 4 4 5 1 5 4 4 1 3 3 6 1 4 11 4 3 1 4 8 12
12 10 11 11 11 12 11 11 12 12 12 12 11 10 9 6 2 4 8 4 6 4 4 3 3 3 5 4 4 8 4 4 3 4 7 3 7 9 8 6 5 2 6 8 11
14 12 12 12 11 14 14 14 14 14 12 11 10 11 7 10 3 4 6 3 4 5 3 3 2 3 3 3 5 3 6 8 6 8 7 7 9 1 3 7 8 5 7 9 13
16 15 13 13 12 14 15 16 16 15 15 10 7 7 7 5 1 5 1 2 4 5 5 3 5 5 2 4 2 5 8 11 11 9 6 3 10 12 7 8 6 8 9 11 14
17 15 15 15 13 13 15 16 17 18 13 6 5 7 6 2 2 3 4 3 1 2 3 2 3 1 3 1 4 6 5 6 6 7 4 3 6 2 6 7 8 9 12 13 17
15 16 17 17 15 13 14 18 20 6 2 5 5 5 3 4 4 1 4 5 6 3 2 2 3 3 3 4 7 8 9 7 5 6 2 8 7 3 6 7 9 9 13 13 18
16 16 16 19 16 10 12 19 7 3 5 4 4 6 4 2 1 3 2 4 4 4 4 3 1 2 2 4 4 7 6 4 7 4 5 10 16 14 9 10 10 12 11 11 12
17 16 17 16 15 5 6 5 5 6 6 6 14 8 7 1 3 3 2 6 4 5 7 5 4 5 5 3 6 7 9 11 8 3 4 10 13 10 8 8 9 9 11 10 13
22 20 19 19 11 6 2 5 4 3 8 6 7 6 2 2 4 4 4 3 4 8 1 5 6 4 1 3 4 6 9 9 4 1 3 10 14 6 7 5 2 7 7 9 16
23 18 13 14 12 3 1 3 2 5 6 4 2 4 0 3 4 0 4 1 7 9 8 9 4 1 4 5 6 8 8 7 5 8 8 10 8 2 2 3 5 8 13 12 14
24 11 12 13 4 3 2 3 5 2 3 3 3 2 3 2 3 2 2 3 4 4 5 7 5 3 5 6 3 6 1 2 6 6 3 2 4 5 4 2 8 15 16 15 16
19 20 10 6 4 1 2 2 3 1 5 4 2 3 0 4 4 4 1 3 5 3 3 3 3 4 7 1 2 3 3 5 5 6 8 7 4 5 3 7 15 17 20 18 18
15 12 7 3 3 3 2 1 1 1 5 3 5 4 5 5 3 1 3 2 3 3 5 8 1 2 2 0 3 4 4 4 3 3 4 4 2 4 4 5 13 16 19 20 19
8 18 7 5 2 3 3 2 1 4 1 3 4 1 7 5 3 3 1 2 4 1 3 5 6 2 2 5 2 2 4 2 3 3 1 3 5 4 3 7 5 10 16 19 17
10 7 10 10 6 5 2 2 4 1 4 1 2 3 6 2 3 3 4 4 5 2 2 4 4 1 1 2 2 2 2 2 4 3 4 5 4 4 5 2 2 1 9 17 19
9 1 3 4 8 3 2 1 3 4 3 3 3 3 4 3 3 4 5 3 1 4 3 2 2 4 5 2 3 2 2 2 3 2 3 2 4 5 1 10 12 11 14 16 19
4 0 2 7 5 1 2 3 6 4 5 2 5 1 2 1 3 2 3 3 2 1 1 2 4 1 3 0 5 2 3 2 2 3 5 4 2 3 12 14 14 15 14 16 17
3 2 3 6 2 1 2 5 8 4 4 3 4 5 6 4 2 4 4 4 1 3 2 1 1 3 2 4 1 2 2 1 2 2 3 5 4 1 5 8 11 11 12 14 16
2 1 5 5 1 2 3 5 5 4 3 1 2 3 3 3 3 3 4 2 1 3 2 2 2 4 1 3 2 2 1 2 3 2 1 3 2 2 3 5 6 9 11 12 13
1 1 3 3 2 3 3 4 2 3 2 1 3 3 1 2 4 4 2 1 1 2 1 1 2 3 3 2 2 4 4 2 2 0 4 3 2 1 1 3 6 7 11 11 13
2 1 1 2 1 4 2 3 2 1 3 2 3 2 2 4 5 3 3 1 1 0 3 2 2 5 4 2 2 3 4 7 4 3 3 5 5 3 6 6 8 8 10 11 11
2 3 1 2 3 4 2 2 3 3 2 2 3 5 4 4 3 5 2 2 4 5 1 1 3 2 9 6 4 4 5 9 7 5 4 3 3 6 3 4 5 7 9 11 12
4 2 1 1 2 4 4 3 3 1 2 3 5 5 4 5 5 3 3 4 3 6 2 1 1 2 4 2 6 8 10 11 9 8 12 10 9 5 2 1 3 7 9 11 12
3 0 2 3 3 3 4 4 3 2 4 4 2 4 7 6 1 2 3 3 2 3 6 3 2 2 2 1 5 8 5 11 6 7 4 4 4 6 3 2 3 6 8 9 11
Wind_Direction
336 337 337 337 342 341 343 340 338 333 329 326 326 323 327 325 306 244 276 348 315 316 313 293 238 266 240 201 232 255 250 254 256 249 111 146 194 166 58 247 209 212 290 346 339
316 325 327 330 334 336 336 334 333 332 330 328 328 323 324 324 301 254 44 322 311 317 304 321 291 278 224 211 205 238 254 287 9 284 248 180 223 183 221 209 228 235 240 330 331
302 310 313 316 322 325 325 329 330 332 329 327 325 316 317 314 278 88 356 329 310 294 293 288 273 273 244 236 183 185 257 6 226 246 283 199 237 202 236 257 240 276 320 320 324
283 292 297 302 308 312 318 325 325 326 326 318 317 313 311 284 319 45 349 328 303 294 272 272 247 248 269 249 183 270 243 269 319 218 212 196 297 243 238 260 74 110 312 308 328
269 275 283 291 301 307 311 315 315 317 317 316 313 311 298 260 289 20 335 308 268 284 339 315 315 300 265 289 276 249 278 257 260 240 248 261 227 255 253 235 179 253 283 322 316
264 268 275 286 298 304 306 309 313 314 313 307 304 295 274 279 89 359 337 293 339 297 330 333 350 341 288 279 264 357 272 258 238 243 253 246 259 285 239 183 221 268 298 302 318
260 260 265 276 287 295 300 306 313 310 302 293 289 281 264 308 74 354 333 332 318 318 291 1 332 262 23 291 293 282 281 246 234 232 251 300 253 229 254 192 238 263 283 309 322
260 257 262 267 272 282 293 302 306 304 294 258 253 270 286 79 285 246 325 272 14 294 299 341 8 316 259 57 232 251 242 261 115 193 135 198 277 158 178 211 246 278 305 318 329
329 275 261 264 266 270 292 298 301 289 226 192 242 247 287 131 232 26 359 324 305 267 265 276 278 261 191 224 270 208 265 220 172 204 165 217 289 100 200 235 269 297 303 329 330
340 330 311 274 261 260 291 292 283 224 200 218 264 257 163 356 346 310 338 301 298 269 234 240 274 276 259 216 243 277 265 257 266 124 229 247 259 272 222 232 266 281 321 330 318
324 314 311 302 252 223 312 278 237 208 213 279 300 277 306 47 217 211 324 294 252 242 250 188 251 238 253 304 320 296 277 276 278 101 284 257 276 283 267 278 262 302 323 330 320
321 313 307 296 196 128 40 273 22 345 293 226 266 268 279 316 268 184 301 267 225 271 255 212 261 50 267 245 256 262 278 289 296 126 265 292 287 310 285 251 236 265 315 344 318
321 310 317 98 109 77 228 58 11 342 267 209 225 268 316 271 285 165 320 330 269 277 259 277 36 71 266 252 262 269 265 295 292 322 269 289 256 202 191 206 289 340 354 333 321
352 317 150 137 177 141 82 67 31 78 287 174 171 121 196 281 239 18 17 297 228 296 319 283 81 258 253 265 283 284 69 298 311 319 315 1 292 183 182 249 347 354 345 328 333
21 49 83 25 115 69 65 82 57 264 277 36 108 16 279 260 351 154 105 231 268 286 262 46 234 246 257 302 253 334 326 302 289 277 316 169 250 113 170 332 344 351 335 336 329
24 10 346 37 63 28 63 7 309 109 236 11 353 344 294 200 217 194 223 218 318 267 231 282 65 281 340 207 261 328 304 234 269 255 245 117 283 133 35 311 315 335 326 334 330
20 38 48 11 64 12 343 270 258 241 113 211 206 251 259 270 259 248 65 241 262 240 200 188 206 140 300 253 176 290 300 273 220 196 316 174 265 33 32 344 315 307 319 328 334
42 45 64 56 36 13 289 222 254 307 243 25 267 239 258 358 221 264 269 256 209 238 288 282 214 228 42 17 340 3 312 303 301 330 350 182 244 107 47 336 153 341 328 334 334
317 85 51 7 353 342 79 228 277 310 1 336 262 256 221 191 273 287 235 301 36 181 220 299 170 117 54 40 324 98 249 22 289 199 262 161 133 138 356 11 353 352 341 336 334
318 62 42 344 335 305 76 251 263 8 332 301 280 194 285 356 290 260 278 84 169 137 128 53 278 165 127 266 61 316 110 240 169 305 292 155 230 45 347 346 345 346 344 330 334
269 251 29 334 286 343 264 265 308 52 348 319 327 283 251 265 194 275 284 125 230 140 171 133 246 117 174 202 18 161 192 170 293 299 305 313 92 77 337 336 332 332 337 328 334
285 257 5 328 137 41 239 314 352 341 31 7 323 279 253 218 242 249 269 27 150 138 166 99 314 263 7 89 33 286 284 260 258 120 224 293 319 96 28 334 322 333 333 334 334
255 82 36 351 214 216 239 269 266 295 304 339 276 236 279 271 298 232 250 37 187 198 34 119 208 271 209 180 188 230 176 144 108 255 225 284 55 215 323 13 5 345 340 343 339
213 278 62 30 331 287 280 274 260 188 272 276 293 268 279 252 219 292 237 238 194 320 66 199 275 258 320 350 85 191 195 195 215 241 141 242 324 33 5 9 349 350 345 347 349
232 239 205 203 218 207 194 324 277 289 231 220 246 237 260 284 266 234 176 185 218 183 219 267 256 234 271 270 221 252 205 183 199 233 248 38 294 334 359 356 321 323 350 355 1
173 184 223 239 151 163 193 247 257 117 226 270 235 292 257 250 243 314 202 198 208 167 160 75 256 293 268 198 250 262 243 208 214 258 258 269 282 171 136 182 326 360 358 360 1
169 127 229 159 187 168 208 219 223 166 241 245 277 307 259 278 115 54 50 36 302 181 182 176 251 272 272 341 302 268 222 187 179 213 205 206 89 149 148 98 19 359 4 360 354